Stations météo

réclame
Mon MeteoGroup
Macon, France (7385): Température de l'air & dewpoint: 05.08.2020 05:00:00 - 11.08.2020 05:00:00 (CEST)Macon, France (7385): Température de l'air 5cm: 05.08.2020 05:00:00 - 11.08.2020 05:00:00 (CEST)Macon, France (7385): Température de l'air -20cm & Température de l'air -100cm: 05.08.2020 05:00:00 - 11.08.2020 05:00:00 (CEST)Macon, France (7385): Vitesse du vent & gusts: 05.08.2020 05:00:00 - 11.08.2020 05:00:00 (CEST)Macon, France (7385): Direction du vent: 05.08.2020 05:00:00 - 11.08.2020 05:00:00 (CEST)Macon, France (7385): reduced air pressure: 05.08.2020 05:00:00 - 11.08.2020 05:00:00 (CEST)Macon, France (7385): visibility: 05.08.2020 05:00:00 - 11.08.2020 05:00:00 (CEST)Macon, France (7385): Ensoleillement: 05.08.2020 05:00:00 - 11.08.2020 05:00:00 (CEST)Macon, France (7385): Quantités de précipitations: 05.08.2020 05:00:00 - 11.08.2020 05:00:00 (CEST)
Date & Time tt [°C] td [°C] tt 5cm [°C] tt -20cm [°C] tt -100cm [°C] ff [km/h] ff [knt] fx [km/h] fx [knt] dd ppp [hPa] vv [km] sd [min] rr [mm]
11.08.2020 05:00:00 - - - - - - - - - - - - - -
11.08.2020 04:00:00 - - - - - - - - - - - - - -
11.08.2020 03:00:00 - - - - - - - - - - - - - -
11.08.2020 02:00:00 - - - - - - - - - - - - - -
11.08.2020 01:00:00 - - - - - - - - - - - - - -
11.08.2020 00:00:00 - - - - - - - - - - - - - -
10.08.2020 23:00:00 - - - - - - - - - - - - - -
10.08.2020 22:00:00 - - - - - - - - - - - - - -
10.08.2020 21:00:00 - - - - - - - - - - - - - -
10.08.2020 20:00:00 - - - - - - - - - - - - - -
10.08.2020 19:00:00 - - - - - - - - - - - - - -
10.08.2020 18:00:00 - - - - - - - - - - - - - -
10.08.2020 17:00:00 - - - - - - - - - - - - - -
10.08.2020 16:00:00 - - - - - - - - - - - - - -
10.08.2020 15:00:00 - - - - - - - - - - - - - -
10.08.2020 14:00:00 - - - - - - - - - - - - - -
10.08.2020 13:00:00 - - - - - - - - - - - - - -
10.08.2020 12:00:00 - - - - - - - - - - - - - -
10.08.2020 11:00:00 - - - - - - - - - - - - - -
10.08.2020 10:00:00 - - - - - - - - - - - - - -
10.08.2020 09:00:00 - - - - - - - - - - - - - -
10.08.2020 08:00:00 23,8 13,9 19,9 24,8 20,3 3 1 11 6 NNW 1013,4 20 35 0,0
10.08.2020 07:00:00 21,1 13,0 16,7 25,0 20,3 7 4 12 6 NW 1013,4 20 0 0,0
10.08.2020 06:00:00 21,2 13,6 17,2 25,2 20,3 0 0 13 7 N 1013,1 20 0 0,0
10.08.2020 05:00:00 21,1 13,5 17,4 25,4 20,3 3 1 13 7 W 1013,2 20 0 0,0
10.08.2020 04:00:00 23,2 13,1 18,8 25,6 20,3 5 3 17 9 NW 1013,0 20 0 0,0
10.08.2020 03:00:00 23,5 13,4 19,9 25,7 20,3 8 5 14 8 WNW 1013,1 20 0 0,0
10.08.2020 02:00:00 23,6 13,5 19,9 25,9 20,3 6 3 13 7 WNW 1013,4 20 0 0,0
10.08.2020 01:00:00 24,4 14,2 20,9 26,0 20,3 0 0 11 6 N 1013,6 20 0 0,0
10.08.2020 00:00:00 26,1 13,6 21,6 26,2 20,3 5 3 12 7 W 1013,5 20 0 0,0
09.08.2020 23:00:00 26,4 14,5 23,7 26,3 20,3 4 2 18 10 S 1013,6 20 0 0,0
09.08.2020 22:00:00 28,0 13,9 24,5 26,3 20,3 7 4 12 6 N 1012,8 20 0 0,0
09.08.2020 21:00:00 28,2 14,8 24,7 26,4 20,3 3 2 19 10 SSE 1012,7 20 0 0,0
09.08.2020 20:00:00 30,1 15,0 28,1 26,3 20,2 3 1 17 9 SE 1012,1 20 14 0,0
09.08.2020 19:00:00 32,1 13,8 31,5 26,1 20,2 8 4 18 10 NW 1012,0 20 0 0,0
09.08.2020 18:00:00 32,9 14,0 32,2 25,8 20,2 10 5 25 14 W 1012,4 20 0 0,0
09.08.2020 17:00:00 34,7 12,4 35,2 25,4 20,2 6 4 19 11 ENE 1012,7 20 36 0,0
09.08.2020 16:00:00 36,1 13,0 41,4 25,0 20,2 7 4 16 9 ENE 1012,9 20 60 0,0
09.08.2020 15:00:00 35,2 12,2 36,7 24,7 20,2 8 4 16 9 ESE 1013,2 20 60 0,0
09.08.2020 14:00:00 34,1 14,1 36,2 24,3 20,2 7 4 15 8 SE 1014,1 20 60 0,0
09.08.2020 13:00:00 32,4 14,5 37,6 24,0 20,2 7 4 17 9 ESE 1014,9 16 60 0,0
09.08.2020 12:00:00 30,6 14,2 34,6 23,9 20,2 6 4 12 7 ESE 1015,6 19 60 0,0
09.08.2020 11:00:00 28,3 14,2 31,6 23,8 20,2 5 3 12 7 E 1016,3 20 60 0,0
09.08.2020 10:00:00 26,3 14,1 27,9 23,9 20,2 4 2 11 6 ENE 1016,6 20 60 0,0
09.08.2020 09:00:00 24,4 14,8 24,5 24,0 20,2 5 3 12 7 ESE 1016,9 20 49 0,0
09.08.2020 08:00:00 21,6 13,8 17,1 24,2 20,2 0 0 7 4 N 1017,1 20 60 0,0
09.08.2020 07:00:00 19,1 14,4 15,4 24,4 20,2 0 0 6 3 N 1017,2 20 4 0,0
09.08.2020 06:00:00 19,2 12,0 14,9 24,6 20,2 5 3 12 6 NW 1016,8 20 0 0,0
09.08.2020 05:00:00 19,2 12,0 15,0 24,8 20,2 4 2 7 4 W 1017,0 20 0 0,0
09.08.2020 04:00:00 19,9 12,9 15,5 25,0 20,2 0 0 6 4 N 1016,6 20 0 0,0
09.08.2020 03:00:00 21,4 10,2 16,4 25,2 20,2 0 0 6 3 N 1016,3 20 0 0,0
09.08.2020 02:00:00 23,9 9,8 21,4 25,3 20,1 6 3 17 9 WNW 1016,0 20 0 0,0
09.08.2020 01:00:00 24,9 10,4 22,4 25,6 20,2 13 7 18 10 WNW 1015,9 20 0 0,0
09.08.2020 00:00:00 25,1 10,9 22,8 25,7 20,1 10 5 16 9 WNW 1016,1 20 0 0,0
08.08.2020 23:00:00 26,4 10,9 23,0 25,8 20,1 10 5 15 8 WNW 1015,9 20 0 0,0
08.08.2020 22:00:00 27,1 11,9 21,7 25,9 20,1 8 4 11 6 WNW 1015,8 20 0 0,0
08.08.2020 21:00:00 29,7 12,6 22,9 25,8 20,1 5 3 9 5 WNW 1015,3 20 36 0,0
08.08.2020 20:00:00 33,1 12,1 32,6 25,6 20,1 5 3 17 9 NE 1014,9 20 52 0,0
08.08.2020 19:00:00 35,1 10,9 37,3 25,4 20,1 10 6 17 9 NE 1014,7 20 60 0,0
08.08.2020 18:00:00 35,7 9,3 39,2 25,0 20,1 14 8 22 12 NE 1015,0 20 60 0,0
08.08.2020 17:00:00 35,9 10,9 40,2 24,6 20,1 13 7 27 14 E 1015,4 20 60 0,0
08.08.2020 16:00:00 35,5 11,8 40,2 24,3 20,1 15 8 24 13 ENE 1015,8 20 60 0,0
08.08.2020 15:00:00 34,6 11,7 36,5 23,9 20,1 6 4 21 12 NNE 1016,5 20 60 0,0
08.08.2020 14:00:00 33,5 11,9 35,7 23,5 20,1 8 4 21 11 E 1017,1 20 60 0,0
08.08.2020 13:00:00 31,9 13,6 36,6 23,2 20,1 5 3 13 7 E 1017,6 20 60 0,0
08.08.2020 12:00:00 30,0 14,1 33,7 23,0 20,1 3 2 11 6 E 1018,3 20 60 0,0
08.08.2020 11:00:00 26,8 13,2 31,1 23,0 20,1 8 5 16 9 SE 1019,0 20 60 0,0
08.08.2020 10:00:00 24,7 13,3 28,8 23,0 20,1 8 5 13 7 SSE 1019,2 20 60 0,0
08.08.2020 09:00:00 22,7 12,9 23,0 23,2 20,1 4 2 7 4 SSE 1019,3 20 54 0,0
08.08.2020 08:00:00 20,1 12,6 15,9 23,4 20,1 0 0 8 4 N 1019,4 20 60 0,0
08.08.2020 07:00:00 16,7 11,4 12,2 23,6 20,1 5 3 8 4 W 1019,5 20 5 0,0
08.08.2020 06:00:00 16,6 11,1 12,4 23,8 20,1 0 0 7 4 N 1019,1 20 0 0,0
08.08.2020 05:00:00 17,1 11,4 12,8 24,0 20,2 3 1 6 3 WNW 1018,9 20 0 0,0
08.08.2020 04:00:00 18,4 11,7 14,7 24,2 20,1 3 2 10 6 SSE 1018,6 20 0 0,0
08.08.2020 03:00:00 20,9 11,0 18,1 24,4 20,1 7 4 14 8 W 1018,0 20 0 0,0
08.08.2020 02:00:00 23,3 10,4 19,7 24,7 20,0 10 5 15 8 WNW 1017,6 20 0 0,0
08.08.2020 01:00:00 22,4 10,8 20,0 24,8 20,1 9 5 15 8 WNW 1017,6 20 0 0,0
08.08.2020 00:00:00 24,3 10,6 21,5 25,0 20,1 9 5 16 9 WNW 1017,4 20 0 0,0
07.08.2020 23:00:00 24,8 10,3 22,5 25,1 20,1 9 5 16 9 WNW 1016,9 20 0 0,0
07.08.2020 22:00:00 25,3 11,1 20,1 25,1 20,1 9 5 13 7 WNW 1016,5 20 0 0,0
07.08.2020 21:00:00 28,2 9,9 20,7 25,0 20,1 3 2 11 6 NW 1015,7 20 30 0,0
07.08.2020 20:00:00 32,0 10,1 33,0 24,9 20,1 7 4 16 9 NE 1015,2 20 60 0,0
07.08.2020 19:00:00 33,7 9,0 36,4 24,6 20,1 10 5 19 11 NE 1015,2 20 60 0,0
07.08.2020 18:00:00 34,2 8,8 38,4 24,2 20,1 11 6 20 11 NE 1015,3 20 60 0,0
07.08.2020 17:00:00 34,5 7,5 39,3 23,7 20,1 8 4 20 11 NNE 1015,6 20 60 0,0
07.08.2020 16:00:00 33,6 9,6 39,4 23,3 20,1 6 4 16 9 NE 1015,9 20 60 0,0
07.08.2020 15:00:00 32,7 11,8 33,9 23,0 20,1 7 4 20 11 ESE 1016,5 19 60 0,0
07.08.2020 14:00:00 31,7 12,0 33,4 22,5 20,1 6 3 14 8 SSE 1016,8 20 60 0,0
07.08.2020 13:00:00 29,6 13,4 34,7 22,3 20,1 5 3 18 10 SE 1017,5 20 60 0,0
07.08.2020 12:00:00 28,0 13,9 32,4 22,1 20,1 7 4 14 8 SSE 1018,2 20 60 0,0
07.08.2020 11:00:00 25,7 12,5 30,0 22,0 20,1 6 4 10 6 SE 1018,6 20 60 0,0
07.08.2020 10:00:00 23,8 12,7 26,6 22,1 20,1 4 2 8 4 SE 1018,7 20 60 0,0
07.08.2020 09:00:00 21,0 13,2 23,6 22,2 20,2 3 2 7 4 SE 1019,0 20 60 0,0
07.08.2020 08:00:00 20,0 13,0 14,8 22,4 20,1 0 0 6 3 N 1018,6 20 60 0,0
07.08.2020 07:00:00 15,8 11,4 10,8 22,6 20,1 5 3 7 4 W 1018,7 20 6 0,0
07.08.2020 06:00:00 15,3 10,7 11,0 22,8 20,2 0 0 9 5 N 1018,4 20 0 0,0
07.08.2020 05:00:00 16,1 10,4 11,5 23,0 20,2 5 3 8 4 W 1018,2 20 0 0,0
07.08.2020 04:00:00 16,7 10,5 12,0 23,2 20,1 4 2 6 3 WSW 1018,0 20 0 0,0
07.08.2020 03:00:00 19,9 10,0 15,4 23,4 20,2 3 2 16 8 NW 1017,5 20 0 0,0
07.08.2020 02:00:00 20,8 10,6 18,5 23,6 20,2 9 5 17 9 NW 1017,5 20 0 0,0
07.08.2020 01:00:00 21,2 10,1 19,1 23,8 20,2 12 6 18 10 WNW 1017,5 20 0 0,0
07.08.2020 00:00:00 22,3 9,5 19,9 23,9 20,2 10 5 16 9 WNW 1017,6 20 0 0,0
06.08.2020 23:00:00 22,5 10,0 16,6 24,0 20,2 10 5 16 9 WNW 1017,3 20 0 0,0
06.08.2020 22:00:00 23,7 10,4 17,1 24,0 20,2 6 3 10 5 NW 1016,8 20 0 0,0
06.08.2020 21:00:00 26,8 9,6 21,0 24,0 20,2 6 4 15 8 N 1016,1 20 31 0,0
06.08.2020 20:00:00 29,7 8,7 30,5 23,8 20,2 10 5 20 11 NNE 1015,7 20 60 0,0
06.08.2020 19:00:00 31,1 8,1 34,1 23,5 20,2 11 6 22 12 NE 1015,5 20 60 0,0
06.08.2020 18:00:00 31,6 6,6 35,2 23,1 20,2 14 7 25 14 NE 1015,4 20 60 0,0
06.08.2020 17:00:00 31,3 7,7 35,9 22,8 20,2 16 8 26 14 NNE 1015,5 20 60 0,0
06.08.2020 16:00:00 30,7 7,8 35,5 22,4 20,2 13 7 28 15 NE 1015,8 20 60 0,0
06.08.2020 15:00:00 30,1 9,0 32,2 22,1 20,2 11 6 23 13 NE 1016,5 20 60 0,0
06.08.2020 14:00:00 28,7 10,8 31,2 21,7 20,2 10 5 21 11 NE 1016,8 20 60 0,0
06.08.2020 13:00:00 27,4 11,8 32,4 21,4 20,2 11 6 29 16 NE 1017,3 20 60 0,0
06.08.2020 12:00:00 26,6 11,1 30,9 21,2 20,3 10 6 21 12 N 1017,6 20 60 0,0
06.08.2020 11:00:00 24,5 10,7 28,8 21,2 20,3 11 6 20 11 NE 1017,9 20 60 0,0
06.08.2020 10:00:00 22,8 12,7 25,1 21,2 20,3 4 2 8 5 NE 1018,1 20 60 0,0
06.08.2020 09:00:00 20,7 13,2 22,4 21,3 20,3 4 2 8 4 ESE 1018,1 20 60 0,0
06.08.2020 08:00:00 19,2 12,0 12,5 21,5 20,3 0 0 3 2 N 1017,7 20 60 0,0
06.08.2020 07:00:00 13,8 10,8 9,0 21,7 20,3 2 1 4 2 NNW 1017,8 20 8 0,0
06.08.2020 06:00:00 13,6 10,6 9,5 21,9 20,3 0 0 4 2 N 1017,5 20 0 0,0
06.08.2020 05:00:00 15,5 10,5 10,9 22,1 20,4 3 1 8 5 ESE 1017,1 20 0 0,0
06.08.2020 04:00:00 17,1 9,3 11,4 22,3 20,4 5 3 13 7 NNW 1017,0 20 0 0,0
06.08.2020 03:00:00 18,3 9,1 12,6 22,5 20,4 10 5 15 8 NW 1016,7 20 0 0,0
06.08.2020 02:00:00 18,5 8,5 14,9 22,7 20,4 7 4 15 8 NW 1016,5 20 0 0,0
06.08.2020 01:00:00 19,5 7,9 17,3 22,9 20,4 10 5 19 10 NW 1016,3 20 0 0,0
06.08.2020 00:00:00 20,6 6,9 18,0 23,0 20,4 10 5 18 10 NW 1015,9 20 0 0,0
05.08.2020 23:00:00 21,0 6,5 18,2 23,1 20,4 9 5 18 10 NW 1015,7 20 0 0,0
05.08.2020 22:00:00 21,1 7,0 17,3 23,2 20,4 8 4 16 8 WNW 1015,5 20 0 0,0
05.08.2020 21:00:00 24,3 5,6 21,7 23,1 20,4 9 5 16 9 NNW 1014,6 20 33 0,0
05.08.2020 20:00:00 27,3 5,5 29,2 22,9 20,4 13 7 24 13 N 1014,1 20 60 0,0
05.08.2020 19:00:00 28,3 5,2 32,1 22,7 20,4 13 7 29 16 N 1013,8 20 60 0,0
05.08.2020 18:00:00 28,7 4,2 32,9 22,3 20,4 16 9 28 15 N 1013,8 20 60 0,0
05.08.2020 17:00:00 28,9 5,7 33,7 22,0 20,4 10 5 28 15 NNW 1013,7 20 60 0,0
05.08.2020 16:00:00 28,7 6,7 33,7 21,6 20,4 14 8 32 17 NNE 1014,0 20 60 0,0
05.08.2020 15:00:00 28,1 7,3 29,5 21,3 20,4 13 7 31 17 NNW 1014,2 20 60 0,0
05.08.2020 14:00:00 27,2 7,6 28,9 20,9 20,4 15 8 34 19 N 1014,7 20 60 0,0
05.08.2020 13:00:00 25,6 9,0 30,0 20,7 20,5 19 10 32 17 NNE 1015,3 20 60 0,0
05.08.2020 12:00:00 24,5 9,2 28,6 20,6 20,5 13 7 27 14 N 1015,7 20 60 0,0
05.08.2020 11:00:00 22,8 8,1 25,7 20,5 20,5 18 10 30 16 N 1016,1 20 60 0,0
05.08.2020 10:00:00 20,7 8,7 24,1 20,6 20,5 18 10 27 15 N 1016,6 20 60 0,0
05.08.2020 09:00:00 19,0 9,5 19,0 20,7 20,5 11 6 20 11 N 1016,7 20 60 0,0
05.08.2020 08:00:00 16,3 9,7 14,6 20,9 20,5 9 5 18 10 NW 1016,7 20 60 0,0
05.08.2020 07:00:00 14,4 9,4 12,4 21,1 20,5 8 5 17 9 NNW 1016,9 20 9 0,0
05.08.2020 06:00:00 14,3 9,3 12,7 21,3 20,6 7 4 18 10 NNW 1016,7 20 0 0,0
05.08.2020 05:00:00 15,1 9,5 13,7 21,5 20,6 11 6 26 14 NW 1016,5 20 0 0,0

tt = Température de l'air
td = dewpoint
tt 5cm = Température de l'air 5cm
tt -20cm = Température de l'air -20cm
tt -100cm = Température de l'air -100cm
ff = Vitesse du vent
fx = gusts
dd = Direction du vent
ppp = reduced air pressure
vv = visibility
sd = Ensoleillement
rr = Quantités de précipitations

stations d'obs. à proximité